Location: *
(58.7167°N, 26.1833°E)
Time: 03:45:16
(UTC+00:00)

COSMOS 2455 - Pass Details

Date: 25 August 2019
Orbit: 900 x 910 km, 67.1° (Epoch: 14 October)

Event Time Altitude Azimuth Distance (km) Brightness Sun altitude
Rises 18:20:49 0° 290° (WNW) 3,546 8.0 -5.9°
Reaches altitude 10° 18:23:31 10° 298° (WNW) 2,605 7.1 -6.2°
Maximum altitude 18:29:09 39° 7° (N) 1,354 4.1 -6.9°
Drops below altitude 10° 18:34:47 10° 75° (ENE) 2,604 4.9 -7.5°
Sets 18:37:29 0° 83° (E) 3,544 5.5 -7.7°
Enters shadow 18:37:38 - 84° (E) 3,598 5.5 -7.8°
